Location: ICStars Ranch
(38.8297°N, 93.7687°W)
Time: 20:50:17
(UTC-05:00)

Daily predictions for brighter satellites

Satellite Brightness Start Highest point End
(mag) Time Altitude Azimuth Time Altitude Azimuth Time Altitude Azimuth
ATLAS 2AS CENTAUR R/B 3.5 21:08:00 10° S 21:14:56 38° ESE 21:22:13 10° NE
OAO 3 Rocket 3.6 21:10:35 10° WSW 21:15:21 49° S 21:20:06 10° E
Cosmos 1238 Rocket 4.0 21:14:31 10° SE 21:16:15 15° E 21:18:00 10° NE
Lacrosse 5 2.0 21:11:32 10° SSW 21:16:27 55° SE 21:21:24 10° NE
Cosmos 1758 Rocket 4.4 21:12:47 10° SSE 21:16:44 32° E 21:20:40 10° NNE
SL-8 R/B 4.2 21:13:16 10° SSW 21:17:42 38° SE 21:22:09 10° ENE
Resurs 01 Rocket 1.7 21:14:04 10° SSE 21:18:29 89° ENE 21:22:56 10° NNW
Cosmos 1400 Rocket 2.8 21:15:13 10° S 21:19:15 76° E 21:23:15 10° NNE
ARGOS 4.0 21:14:48 10° SE 21:19:40 35° ENE 21:24:31 10° N
Aureole 1 Rocket 2.5 21:21:03 10° S 21:24:01 49° ESE 21:27:32 10° NNE
Iridium 4 Rocket 3.9 21:24:05 10° SSE 21:29:36 52° E 21:34:45 10° NNE
Cosmos 1346 Rocket 4.4 21:26:49 10° NNE 21:29:55 21° ENE 21:32:47 11° ESE
NOAA 11 4.3 21:24:47 10° SSE 21:30:13 86° W 21:35:40 10° NNW
Cosmos 1844 Rocket 3.3 21:25:44 10° SSE 21:30:46 34° ESE 21:35:49 10° NE
Cosmos 1470 3.6 21:27:06 10° NNW 21:30:53 51° W 21:34:40 10° S
ERS-1 Rocket 4.3 21:26:59 10° ESE 21:31:00 25° ENE 21:35:01 10° NNE
Meteor 1-24 Rocket 4.2 21:34:21 10° SSE 21:40:06 48° E 21:45:51 10° NNE
Cosmos 1048 Rocket 4.0 21:36:08 10° S 21:41:24 76° ESE 21:46:46 10° NNE
Cosmos 1825 Rocket 3.5 21:37:31 10° S 21:41:57 75° E 21:46:25 10° N
Cosmos 921 Rocket 4.4 21:42:34 10° N 21:46:20 26° ENE 21:49:14 14° ESE
USA 215 3.5 21:40:27 11° SE 21:46:48 68° SW 21:53:21 10° NW
Meteor 2-5 Rocket 3.9 21:47:58 10° S 21:53:56 85° W 21:59:53 10° N
Cosmos 2285 Rocket 4.0 21:51:21 10° SSW 21:57:40 80° ESE 22:03:59 10° NNE
Cosmos 1437 3.1 21:56:07 10° N 21:59:11 47° ENE 22:00:49 23° SE
Cosmos 1908 4.2 21:57:32 10° NNE 22:01:00 31° ENE 22:02:49 21° ESE
Cosmos 2263 Rocket 4.5 21:57:19 10° WSW 22:02:08 28° WNW 22:06:58 10° N
Spot 2 Rocket 4.4 21:58:22 10° S 22:03:10 46° W 22:08:03 10° NNW
Cosmos 1452 Rocket 4.3 21:59:20 10° NNW 22:04:24 48° WSW 22:09:27 10° S
S3M 4.5 22:10:09 18° SSE 22:14:36 44° E 22:20:36 10° NNE
CZ-2C R/B 4.4 22:13:51 10° ENE 22:16:28 14° E 22:17:05 13° E
Terra 3.4 22:14:51 16° E 22:16:59 21° ENE 22:20:32 10° NNE
Cosmos 1340 3.9 22:13:45 10° NNE 22:17:00 27° ENE 22:18:05 23° ESE
Cosmos 1110 Rocket 4.1 22:18:28 10° N 22:23:35 59° ENE 22:26:21 26° SE
BREEZE-M DEB (TANK) 4.1 22:14:33 10° WSW 22:24:52 59° NW 22:28:10 10° NE
SPOT 1/Viking Rocket 3.9 22:22:20 25° SE 22:25:06 49° ENE 22:30:03 10° N
H-2A R/B 2.2 22:21:14 17° S 22:25:19 74° WSW 22:30:43 10° NNW
Cosmos 1674 2.6 22:25:41 22° S 22:28:03 88° E 22:31:55 10° N
Cosmos 1315 Rocket 4.5 22:24:23 10° SW 22:28:04 34° WNW 22:31:49 10° N
Iridium 81 3.4 22:29:10 77° E 22:29:10 77° E 22:31:51 10° N
Cosmos-2242 3.2 22:24:52 10° N 22:29:16 74° W 22:31:59 23° S
MetOp-B 4.4 22:25:41 17° S 22:29:47 68° WSW 22:35:09 10° NNW
Cosmos 1300 4.2 22:28:18 10° NNE 22:31:18 22° ENE 22:31:48 21° E
Cosmos 2084 3.1 22:30:34 10° NW 22:34:25 79° WSW 22:35:44 39° SSE
Cosmos 1331 Rocket 4.0 22:32:45 10° NNW 22:37:58 72° ENE 22:40:25 32° SSE
Cosmos 1553 Rocket 3.9 22:33:39 18° S 22:38:21 80° E 22:44:27 10° N
Cosmos 1842 Rocket 3.9 22:35:28 10° N 22:39:41 48° E 22:40:57 36° SE
USA 238 DEB 3.9 22:32:50 10° NNW 22:40:00 71° NE 22:44:13 27° SE
USA 238 3.9 22:32:57 10° NNW 22:40:07 71° NE 22:44:19 27° SE
ATLAS 3B R/B 3.0 22:34:16 10° NNW 22:40:46 53° NE 22:44:27 26° ESE
Cosmos 494 Rocket 4.1 22:37:29 10° SSW 22:42:43 76° WNW 22:48:00 10° NNE
Meteor 1-21 Rocket 4.4 22:43:12 28° SSE 22:46:16 60° E 22:52:00 10° NNE
DMSP B5D2-2 4.2 22:41:55 10° N 22:47:11 78° WNW 22:51:24 16° SSW
Helios 1A 2.9 22:45:57 41° SSE 22:47:22 82° ENE 22:51:36 10° N
Cosmos 1726 2.0 22:45:22 10° N 22:49:08 90° NW 22:50:03 50° S
SPOT 5 2.9 22:47:50 33° SSE 22:50:12 90° N 22:55:28 10° NNW
Cosmos 2278 Rocket 2.3 22:50:05 31° SSE 22:52:30 53° ESE 22:58:01 10° NNE
NOSS 3-2 (A) 4.3 22:45:26 10° NNW 22:52:55 59° NE 22:57:41 26° ESE
Meteor 2-10 4.1 22:48:01 10° N 22:53:28 84° E 22:56:00 34° SSE
Helios 1B rocket 2.3 22:54:27 10° NNE 22:58:34 78° ESE 22:59:36 49° S
OAO 3 Rocket 3.3 22:53:50 10° W 22:58:38 53° S 22:59:32 46° SSE
Lacrosse 5 4.0 22:55:20 10° W 22:59:41 28° NW 23:04:03 10° NNE
SL-14 R/B 3.1 23:02:21 64° SE 23:02:45 71° E 23:06:39 10° NNE
Cosmos 1386 Rocket 4.4 22:57:04 10° N 23:03:10 73° E 23:05:35 38° SSE
Cosmos 1302 Rocket 4.0 23:00:03 10° NNW 23:05:20 70° ENE 23:06:56 44° SE
ATLAS 2AS CENTAUR R/B 3.9 22:58:11 10° SW 23:05:46 51° NW 23:13:40 10° NNE
COSMOS 2406 3.2 23:00:29 10° NNW 23:06:15 79° WSW 23:08:28 39° S
Cosmos 2251 Rocket 3.5 23:05:50 27° SSW 23:08:48 88° WNW 23:14:10 10° NNE
ERS-1 Rocket 4.1 23:06:47 21° SSW 23:09:34 36° W 23:14:13 10° NNW
CZ-2C R/B 3.4 23:09:45 40° SE 23:11:49 66° ENE 23:17:33 10° N
Cosmos 1844 Rocket 4.4 23:09:34 10° WSW 23:14:37 32° WNW 23:19:40 10° N
NOSS 3-2 (C) 4.3 23:09:56 10° NNW 23:17:29 62° NE 23:21:37 31° ESE
Cosmos 2221 2.4 23:14:25 10° N 23:18:44 69° E 23:19:04 65° ESE
Meteor 1-29 3.3 23:20:36 10° N 23:23:52 60° WNW 23:23:52 60° WNW
Aureole 3 Rocket 4.3 23:24:05 38° SSE 23:27:11 64° E 23:33:10 10° NNE
Cosmos 2297 4.1 23:34:22 44° ESE 23:34:28 44° ESE 23:39:51 10° NE
ATLAS 5 CENTAUR R/B 1.5 23:35:21 71° ESE 23:35:21 71° ESE 23:40:01 10° NE
NOSS 2-2 (E) 3.4 23:42:07 76° N 23:42:07 76° N 23:46:13 10° NNE
Cosmos 2082 Rocket 2.8 23:36:34 10° N 23:42:02 44° ENE 23:43:22 38° E
NOSS 3-4 (A) 3.6 23:37:55 17° SW 23:42:48 73° NW 23:49:13 10° NNE
NOSS 3-4 (C) 3.6 23:38:08 18° SW 23:42:53 74° NW 23:49:18 10° NNE
RESURS DK-1 3.5 23:46:15 33° ENE 23:46:15 33° ENE 23:48:50 10° NE
Cosmos 1461 3.9 23:44:19 26° WSW 23:46:42 50° NW 23:51:21 10° NNE
Cosmos 1833 Rocket 3.0 23:41:31 10° NNW 23:47:02 55° ENE 23:48:06 48° ESE
EO 1 Delta rocket 4.3 23:41:24 10° N 23:48:06 80° E 23:49:16 58° S
Cosmos 1626 2.7 23:48:43 54° NW 23:48:43 54° NW 23:51:59 10° N
CENTAUR R/B 3.6 23:42:08 10° NNW 23:49:55 53° NE 23:54:15 29° ESE
COBE Rocket 3.9 23:44:53 10° NNE 23:49:59 71° E 23:50:20 68° SE
ADEOS Rocket 4.0 23:45:19 10° NE 23:50:38 31° E 23:50:52 31° E
Terra 2.7 23:53:44 36° WSW 23:54:27 38° W 23:58:54 10° NNW
